GEFSMA_prec_meanprecacc_264.txt.gz
Total_Precipitation_Accumulation
2.34 2.32 2.30 2.28 2.15 2.23 2.47 2.66 2.68 3.03 3.16 2.77 2.38 2.21 2.24 2.31 2.20 2.20 2.07 1.92 1.86 2.06 2.50 2.77 2.66 2.43 2.15 1.87 1.73 1.69 1.57 1.38 1.25 1.10 1.07 1.14 1.15 1.07 0.98 0.93 0.88 0.81 0.74
2.50 2.63 2.50 2.48 2.32 2.28 2.45 2.64 2.83 3.31 3.26 3.07 2.64 2.37 2.32 2.29 2.11 2.06 2.15 2.29 2.12 2.03 2.18 2.55 2.87 2.82 2.65 2.37 2.08 1.93 1.79 1.70 1.51 1.22 1.06 1.12 1.16 1.13 1.11 1.07 0.98 0.85 0.77
2.54 2.57 2.40 2.32 2.39 2.51 2.70 2.72 2.93 3.15 2.86 2.87 2.67 2.43 2.25 2.06 1.91 1.90 2.08 2.24 2.12 2.05 2.19 2.42 2.70 2.83 2.96 2.97 2.84 2.65 2.23 1.93 1.73 1.48 1.24 1.18 1.19 1.13 1.09 1.08 1.03 0.94 0.82
2.43 2.65 2.44 2.30 2.62 2.66 2.79 3.08 3.23 3.20 3.13 3.13 2.88 2.50 2.24 2.13 1.80 1.69 1.69 1.83 2.04 1.84 2.13 2.38 2.47 2.58 2.92 3.31 3.56 3.55 3.11 2.61 2.21 1.90 1.63 1.47 1.42 1.27 1.08 1.01 1.03 0.96 0.79
2.47 2.77 2.73 2.83 2.89 2.99 3.03 2.89 3.32 3.36 3.26 3.27 2.84 2.59 2.24 1.99 1.78 1.57 1.49 1.47 1.71 1.92 2.01 2.06 2.17 2.33 2.80 3.57 3.92 4.00 3.92 3.50 2.85 2.45 2.25 2.08 1.95 1.64 1.29 1.12 1.09 1.02 0.87
2.57 2.99 2.85 2.84 2.93 3.09 3.15 3.13 3.29 3.32 3.07 3.05 2.72 2.56 2.16 1.70 1.61 1.53 1.36 1.36 1.46 1.52 1.78 2.09 2.30 2.05 2.42 3.03 3.46 3.98 4.31 4.04 3.36 2.94 2.77 2.63 2.52 2.19 1.63 1.33 1.28 1.19 1.06
2.56 2.98 2.85 3.09 3.05 3.05 3.07 3.13 3.26 3.18 2.86 3.05 3.13 2.66 2.05 1.61 1.60 1.39 1.33 1.37 1.41 1.42 1.72 2.10 2.38 2.31 2.11 2.20 2.54 3.04 3.70 4.00 3.76 3.34 3.11 2.94 2.91 2.67 2.09 1.72 1.57 1.39 1.30
2.75 2.79 2.97 2.95 3.02 3.12 3.06 3.05 3.18 3.02 2.66 2.89 3.20 3.25 2.58 2.13 1.67 1.23 1.34 1.44 1.55 1.65 1.71 1.84 2.08 2.29 2.29 2.48 2.25 2.17 2.74 3.53 3.99 3.87 3.51 3.07 2.88 2.74 2.44 2.24 1.95 1.73 1.63
2.96 2.97 2.95 2.88 2.88 2.69 2.74 2.81 2.85 2.87 2.80 2.73 3.03 3.32 2.89 2.37 2.01 1.47 1.35 1.38 1.58 1.83 1.88 1.93 1.97 2.17 2.31 2.74 2.86 2.53 2.36 2.68 3.40 4.12 4.15 3.55 2.96 2.68 2.60 2.53 2.41 2.14 1.95
2.81 2.62 2.56 2.71 2.73 2.53 2.54 2.23 2.36 2.57 2.59 2.45 2.70 2.76 2.78 2.76 2.65 1.98 1.52 1.36 1.51 1.70 1.87 1.80 1.82 2.05 2.33 2.64 2.90 2.79 2.34 2.15 2.51 3.43 3.99 3.87 3.40 2.93 2.67 2.67 2.92 2.86 2.48
2.54 2.22 2.24 2.41 2.40 2.33 2.22 2.10 2.27 2.17 2.13 2.18 2.38 2.57 2.65 2.70 2.60 2.43 2.01 1.90 1.84 1.71 1.66 1.67 1.88 2.03 2.23 2.56 2.92 2.71 2.54 2.33 2.20 2.34 2.84 3.28 3.45 3.29 3.13 3.31 3.74 3.92 3.67
2.21 1.95 1.87 2.03 2.15 2.17 2.11 2.08 2.17 2.07 2.09 2.23 2.22 2.28 2.52 2.52 2.48 2.63 2.26 2.09 2.02 1.75 1.70 1.77 1.81 2.00 2.14 2.37 2.47 2.58 2.50 2.29 2.13 2.10 2.23 2.52 2.81 2.94 3.07 3.36 3.85 4.23 4.42
1.88 1.83 1.85 1.95 2.01 2.06 1.92 2.00 2.06 2.10 2.22 2.28 2.22 2.15 2.28 2.33 2.43 2.63 2.56 2.31 2.19 1.98 2.02 1.96 1.80 1.83 1.78 1.96 2.08 2.10 1.92 1.84 1.74 1.70 1.79 1.90 1.96 2.13 2.43 2.84 3.29 3.72 4.06
1.89 1.95 1.93 1.81 1.76 1.87 1.77 2.03 1.97 2.01 2.19 2.23 2.02 2.26 2.31 2.32 2.58 2.76 2.83 2.90 2.64 2.39 2.30 2.23 2.08 1.88 1.81 1.80 1.84 1.78 1.59 1.53 1.34 1.34 1.44 1.54 1.59 1.69 1.92 2.15 2.45 2.76 3.03
1.96 2.07 2.02 1.92 1.82 1.89 2.01 2.28 2.22 2.19 2.39 2.34 2.29 2.48 2.45 2.41 2.57 2.68 2.86 3.03 3.10 2.79 2.60 2.54 2.33 2.01 1.88 1.85 1.85 1.66 1.70 1.62 1.38 1.30 1.23 1.19 1.27 1.40 1.48 1.56 1.73 1.92 2.14
1.81 1.97 2.11 2.04 1.97 2.00 2.16 2.34 2.35 2.50 2.64 2.59 2.63 2.73 2.69 2.56 2.66 2.74 2.76 2.95 3.18 3.09 2.76 2.40 2.19 1.93 1.82 1.70 1.85 1.67 1.69 1.66 1.47 1.32 1.14 1.06 1.11 1.18 1.21 1.26 1.35 1.47 1.65
1.76 1.83 2.02 2.10 2.07 2.10 2.19 2.24 2.23 2.52 2.64 2.62 2.59 2.60 2.59 2.70 2.72 2.65 2.72 2.85 3.08 3.13 2.80 2.32 2.20 2.15 2.13 2.02 1.98 1.84 1.72 1.62 1.40 1.28 1.14 1.10 1.09 1.12 1.16 1.20 1.24 1.23 1.28
1.80 1.87 1.99 2.01 1.93 1.93 2.11 2.15 2.22 2.48 2.61 2.51 2.49 2.50 2.31 2.36 2.42 2.31 2.42 2.48 2.60 2.81 2.78 2.49 2.46 2.44 2.38 2.24 2.19 2.12 1.92 1.66 1.37 1.32 1.18 1.13 1.13 1.12 1.10 1.12 1.17 1.19 1.20
1.74 1.80 1.81 1.83 1.88 1.98 2.07 2.08 2.09 2.11 2.14 2.23 2.45 2.55 2.35 2.33 2.23 2.21 2.23 2.19 2.26 2.38 2.57 2.50 2.42 2.48 2.41 2.38 2.29 2.08 1.92 1.77 1.44 1.37 1.33 1.22 1.15 1.09 1.06 1.06 1.07 1.15 1.25
1.60 1.69 1.76 1.84 1.90 1.94 1.97 2.03 2.07 2.03 2.02 2.07 2.21 2.27 2.25 2.21 2.15 2.23 2.14 2.11 2.17 2.29 2.42 2.43 2.35 2.47 2.47 2.39 2.38 2.20 2.19 2.04 1.85 1.61 1.53 1.41 1.39 1.34 1.25 1.15 1.09 1.08 1.18
1.66 1.73 1.79 1.81 1.81 1.79 1.69 1.72 1.78 1.82 1.96 1.93 1.84 1.86 1.88 1.91 1.92 1.93 1.79 1.93 2.12 2.23 2.27 2.29 2.28 2.43 2.59 2.62 2.43 2.34 2.39 2.36 2.19 1.89 1.75 1.59 1.51 1.41 1.37 1.31 1.23 1.15 1.11
1.74 1.77 1.74 1.78 1.77 1.52 1.65 1.65 1.64 1.77 1.88 1.88 1.78 1.68 1.59 1.59 1.54 1.54 1.51 1.58 1.82 2.00 2.10 2.20 2.19 2.32 2.54 2.72 2.78 2.71 2.57 2.49 2.47 2.30 2.17 2.08 1.84 1.70 1.57 1.43 1.38 1.28 1.16
1.84 1.80 1.73 1.72 1.76 1.80 1.82 1.65 1.51 1.50 1.62 1.68 1.66 1.64 1.46 1.37 1.52 1.48 1.52 1.48 1.50 1.63 1.77 1.96 2.04 2.03 2.20 2.45 2.66 2.60 2.67 2.70 2.69 2.69 2.67 2.60 2.25 1.98 1.70 1.50 1.34 1.07 0.97
2.00 1.96 1.90 1.84 1.85 1.83 1.76 1.54 1.54 1.48 1.53 1.57 1.60 1.65 1.65 1.56 1.58 1.68 1.65 1.58 1.47 1.42 1.50 1.57 1.68 1.81 2.02 2.29 2.52 2.50 2.53 2.60 2.63 2.62 2.65 2.65 2.35 2.13 1.85 1.63 1.48 1.19 1.00
2.09 2.01 1.98 2.03 1.98 1.99 2.03 1.82 1.80 1.67 1.71 1.76 1.80 1.80 1.75 1.65 1.74 1.67 1.61 1.61 1.54 1.51 1.55 1.59 1.56 1.67 1.91 2.03 2.16 2.24 2.22 2.27 2.20 2.11 2.22 2.39 2.36 2.27 2.10 1.81 1.55 1.35 1.10
2.17 2.18 2.18 2.17 2.18 2.21 2.43 2.23 2.03 1.88 1.92 1.93 2.02 2.00 2.00 1.81 1.77 1.68 1.56 1.59 1.60 1.61 1.65 1.60 1.54 1.51 1.54 1.72 1.91 1.94 2.09 2.23 2.11 1.94 1.70 1.81 2.00 2.18 2.31 2.08 1.81 1.60 1.46

GEFSMA_prec_meanprecacc_270.txt.gz
Total_Precipitation_Accumulation
2.37 2.36 2.34 2.31 2.18 2.25 2.49 2.69 2.70 3.04 3.18 2.80 2.42 2.25 2.28 2.37 2.26 2.23 2.11 1.96 1.91 2.13 2.57 2.82 2.70 2.47 2.19 1.93 1.78 1.73 1.62 1.44 1.34 1.20 1.16 1.23 1.24 1.15 1.03 0.96 0.91 0.85 0.79
2.53 2.68 2.60 2.52 2.36 2.32 2.49 2.69 2.87 3.34 3.29 3.11 2.68 2.41 2.36 2.34 2.17 2.10 2.20 2.34 2.17 2.08 2.23 2.61 2.91 2.86 2.69 2.42 2.13 1.98 1.84 1.75 1.58 1.29 1.13 1.20 1.26 1.23 1.20 1.15 1.04 0.90 0.81
2.56 2.59 2.45 2.36 2.42 2.53 2.73 2.75 2.96 3.18 2.90 2.92 2.71 2.47 2.28 2.11 1.99 1.97 2.15 2.32 2.18 2.11 2.25 2.48 2.76 2.88 3.00 3.02 2.89 2.70 2.27 1.96 1.77 1.52 1.29 1.22 1.25 1.22 1.20 1.22 1.17 1.02 0.86
2.44 2.67 2.46 2.32 2.64 2.67 2.80 3.10 3.25 3.23 3.17 3.18 2.93 2.54 2.29 2.19 1.89 1.78 1.76 1.92 2.13 1.92 2.22 2.45 2.52 2.66 3.00 3.38 3.62 3.60 3.17 2.64 2.24 1.94 1.67 1.50 1.47 1.33 1.14 1.09 1.13 1.05 0.85
2.49 2.80 2.75 2.85 2.91 3.01 3.06 2.92 3.35 3.41 3.30 3.32 2.90 2.67 2.32 2.06 1.87 1.67 1.59 1.58 1.80 2.01 2.12 2.16 2.25 2.41 2.89 3.66 4.00 4.05 3.98 3.54 2.89 2.49 2.30 2.14 2.00 1.69 1.35 1.19 1.15 1.08 0.93
2.59 3.02 2.88 2.86 2.95 3.11 3.18 3.16 3.33 3.37 3.11 3.09 2.80 2.69 2.29 1.82 1.72 1.65 1.48 1.48 1.58 1.63 1.90 2.20 2.40 2.15 2.49 3.10 3.53 4.05 4.39 4.13 3.44 3.00 2.83 2.71 2.61 2.27 1.71 1.42 1.35 1.24 1.10
2.60 3.03 2.87 3.11 3.07 3.06 3.09 3.15 3.28 3.21 2.93 3.11 3.19 2.76 2.23 1.80 1.77 1.54 1.46 1.50 1.54 1.53 1.84 2.22 2.49 2.42 2.17 2.27 2.62 3.14 3.82 4.11 3.85 3.43 3.20 3.04 3.02 2.77 2.17 1.80 1.65 1.45 1.34
2.79 2.82 2.99 2.97 3.03 3.13 3.08 3.08 3.21 3.04 2.70 2.97 3.30 3.35 2.70 2.30 1.87 1.41 1.49 1.58 1.69 1.77 1.82 1.96 2.17 2.39 2.39 2.54 2.31 2.25 2.85 3.64 4.10 3.97 3.62 3.17 2.97 2.83 2.53 2.31 2.02 1.78 1.66
2.99 2.99 2.96 2.90 2.89 2.71 2.76 2.83 2.87 2.89 2.82 2.77 3.09 3.41 2.98 2.50 2.18 1.66 1.53 1.53 1.71 1.96 1.99 2.01 2.06 2.28 2.42 2.83 2.93 2.62 2.43 2.78 3.52 4.25 4.26 3.66 3.07 2.77 2.70 2.62 2.49 2.21 2.00
2.84 2.64 2.57 2.73 2.74 2.55 2.56 2.26 2.40 2.60 2.61 2.47 2.73 2.81 2.85 2.85 2.75 2.10 1.66 1.48 1.60 1.80 1.97 1.90 1.93 2.18 2.46 2.77 3.01 2.90 2.45 2.26 2.59 3.51 4.11 4.00 3.52 3.03 2.75 2.74 2.99 2.93 2.54
2.57 2.24 2.26 2.42 2.40 2.34 2.24 2.14 2.31 2.21 2.16 2.21 2.41 2.62 2.70 2.77 2.67 2.51 2.09 1.98 1.90 1.77 1.74 1.80 2.00 2.11 2.32 2.65 3.00 2.81 2.64 2.42 2.26 2.41 2.91 3.35 3.53 3.36 3.19 3.38 3.81 3.99 3.73
2.22 1.97 1.89 2.04 2.16 2.18 2.13 2.11 2.20 2.10 2.12 2.26 2.26 2.33 2.56 2.57 2.54 2.70 2.32 2.14 2.08 1.81 1.76 1.87 1.88 2.08 2.20 2.42 2.51 2.63 2.56 2.36 2.20 2.16 2.29 2.57 2.86 3.00 3.13 3.43 3.94 4.32 4.49
1.89 1.84 1.88 1.96 2.01 2.07 1.93 2.01 2.07 2.11 2.24 2.31 2.25 2.19 2.33 2.38 2.49 2.70 2.64 2.38 2.24 2.02 2.06 2.00 1.84 1.88 1.83 2.00 2.12 2.15 1.98 1.90 1.80 1.76 1.84 1.94 2.00 2.18 2.49 2.91 3.39 3.84 4.14
1.90 1.96 1.94 1.82 1.77 1.87 1.77 2.03 1.98 2.02 2.21 2.26 2.06 2.28 2.34 2.38 2.64 2.83 2.92 2.99 2.71 2.43 2.33 2.25 2.10 1.91 1.85 1.86 1.89 1.84 1.65 1.60 1.41 1.39 1.47 1.57 1.61 1.70 1.94 2.19 2.51 2.83 3.09
1.98 2.09 2.04 1.93 1.82 1.90 2.02 2.29 2.23 2.20 2.40 2.36 2.31 2.49 2.47 2.45 2.62 2.73 2.91 3.10 3.17 2.84 2.64 2.57 2.36 2.04 1.91 1.91 1.92 1.72 1.75 1.69 1.46 1.35 1.27 1.22 1.29 1.41 1.50 1.58 1.75 1.95 2.18
1.83 2.00 2.13 2.06 1.98 2.01 2.16 2.35 2.36 2.51 2.65 2.60 2.63 2.74 2.70 2.57 2.69 2.77 2.79 3.00 3.26 3.18 2.83 2.44 2.21 1.95 1.84 1.73 1.90 1.72 1.74 1.72 1.53 1.37 1.18 1.09 1.13 1.20 1.23 1.28 1.37 1.50 1.68
1.80 1.86 2.06 2.13 2.09 2.12 2.21 2.25 2.23 2.53 2.64 2.63 2.60 2.61 2.60 2.71 2.74 2.68 2.77 2.91 3.15 3.20 2.84 2.33 2.22 2.17 2.15 2.04 2.03 1.89 1.76 1.66 1.45 1.32 1.17 1.12 1.11 1.13 1.17 1.22 1.26 1.25 1.30
1.85 1.90 2.02 2.04 1.95 1.94 2.12 2.16 2.23 2.49 2.62 2.52 2.50 2.51 2.32 2.38 2.44 2.33 2.47 2.53 2.65 2.85 2.81 2.51 2.48 2.46 2.39 2.25 2.21 2.16 1.95 1.70 1.41 1.37 1.22 1.15 1.15 1.13 1.12 1.14 1.19 1.21 1.23
1.77 1.82 1.84 1.86 1.90 1.99 2.08 2.09 2.10 2.12 2.14 2.23 2.46 2.57 2.37 2.35 2.26 2.24 2.25 2.23 2.31 2.42 2.61 2.53 2.45 2.50 2.43 2.40 2.31 2.10 1.95 1.80 1.47 1.40 1.36 1.25 1.17 1.10 1.08 1.08 1.10 1.18 1.29
1.61 1.70 1.78 1.86 1.92 1.96 1.99 2.05 2.09 2.04 2.03 2.09 2.22 2.29 2.26 2.22 2.18 2.26 2.16 2.13 2.19 2.32 2.45 2.47 2.40 2.50 2.50 2.42 2.42 2.23 2.21 2.06 1.88 1.63 1.55 1.43 1.41 1.35 1.27 1.17 1.11 1.11 1.22
1.67 1.74 1.81 1.83 1.83 1.82 1.72 1.75 1.83 1.85 1.98 1.94 1.86 1.87 1.89 1.93 1.93 1.95 1.81 1.95 2.14 2.25 2.29 2.32 2.31 2.45 2.61 2.64 2.46 2.38 2.43 2.39 2.21 1.90 1.76 1.60 1.52 1.42 1.38 1.33 1.25 1.17 1.15
1.74 1.78 1.75 1.80 1.80 1.56 1.71 1.72 1.72 1.82 1.90 1.89 1.80 1.70 1.61 1.60 1.55 1.56 1.53 1.61 1.85 2.03 2.13 2.23 2.22 2.34 2.56 2.73 2.79 2.72 2.58 2.50 2.48 2.31 2.18 2.08 1.85 1.71 1.58 1.44 1.40 1.31 1.21
1.85 1.81 1.74 1.73 1.78 1.84 1.89 1.72 1.57 1.55 1.65 1.70 1.68 1.66 1.47 1.38 1.53 1.50 1.54 1.51 1.53 1.66 1.80 1.99 2.07 2.05 2.22 2.47 2.68 2.61 2.68 2.71 2.70 2.71 2.68 2.61 2.26 1.99 1.71 1.52 1.38 1.11 1.01
2.04 2.00 1.93 1.86 1.87 1.85 1.81 1.59 1.59 1.55 1.61 1.63 1.64 1.67 1.66 1.57 1.59 1.70 1.67 1.60 1.50 1.45 1.52 1.59 1.70 1.83 2.04 2.31 2.55 2.52 2.55 2.61 2.64 2.63 2.67 2.66 2.37 2.15 1.87 1.65 1.52 1.24 1.04
2.17 2.07 2.03 2.06 2.00 2.01 2.06 1.87 1.88 1.76 1.79 1.81 1.84 1.82 1.77 1.66 1.76 1.69 1.63 1.62 1.56 1.54 1.58 1.65 1.62 1.72 1.94 2.05 2.19 2.27 2.24 2.29 2.21 2.12 2.24 2.41 2.37 2.29 2.12 1.83 1.57 1.37 1.11
2.21 2.22 2.22 2.20 2.20 2.24 2.46 2.27 2.08 1.94 1.97 1.97 2.04 2.02 2.03 1.84 1.80 1.70 1.58 1.61 1.62 1.63 1.68 1.63 1.58 1.53 1.55 1.73 1.93 1.97 2.11 2.26 2.14 1.95 1.72 1.84 2.02 2.21 2.33 2.10 1.83 1.62 1.47

GEFSMA_prec_meanprecacc_276.txt.gz
Total_Precipitation_Accumulation
2.38 2.38 2.35 2.32 2.19 2.27 2.51 2.71 2.72 3.07 3.21 2.83 2.46 2.29 2.31 2.40 2.28 2.24 2.12 1.99 1.94 2.17 2.63 2.87 2.77 2.54 2.27 2.00 1.85 1.80 1.67 1.50 1.40 1.27 1.21 1.29 1.32 1.25 1.14 1.05 0.99 0.93 0.85
2.54 2.71 2.62 2.55 2.38 2.35 2.52 2.72 2.90 3.37 3.32 3.15 2.74 2.48 2.41 2.39 2.21 2.13 2.22 2.37 2.21 2.12 2.28 2.66 2.98 2.93 2.77 2.50 2.21 2.06 1.92 1.83 1.65 1.35 1.18 1.26 1.34 1.32 1.30 1.26 1.16 1.01 0.88
2.59 2.62 2.49 2.39 2.44 2.56 2.75 2.78 2.99 3.21 2.93 2.95 2.76 2.55 2.36 2.17 2.03 2.00 2.18 2.35 2.22 2.16 2.31 2.54 2.82 2.94 3.08 3.10 2.96 2.76 2.33 2.01 1.83 1.60 1.35 1.28 1.31 1.29 1.28 1.31 1.30 1.13 0.95
2.47 2.70 2.49 2.34 2.66 2.69 2.83 3.14 3.29 3.25 3.20 3.22 2.97 2.58 2.34 2.23 1.92 1.80 1.78 1.95 2.18 1.95 2.26 2.52 2.59 2.72 3.08 3.46 3.69 3.67 3.23 2.70 2.30 2.00 1.73 1.56 1.54 1.41 1.22 1.16 1.20 1.14 0.95
2.52 2.84 2.80 2.88 2.92 3.03 3.09 2.95 3.39 3.45 3.33 3.34 2.92 2.69 2.35 2.09 1.89 1.70 1.61 1.61 1.84 2.05 2.17 2.22 2.32 2.48 2.97 3.75 4.10 4.15 4.06 3.61 2.96 2.56 2.37 2.21 2.08 1.78 1.44 1.27 1.22 1.14 1.00
2.63 3.05 2.92 2.89 2.96 3.13 3.20 3.18 3.35 3.40 3.14 3.11 2.81 2.70 2.31 1.84 1.74 1.68 1.51 1.50 1.62 1.67 1.94 2.24 2.45 2.21 2.56 3.18 3.62 4.16 4.50 4.24 3.54 3.10 2.95 2.81 2.71 2.39 1.82 1.51 1.44 1.33 1.19
2.65 3.07 2.90 3.13 3.09 3.08 3.11 3.17 3.30 3.23 2.95 3.13 3.21 2.78 2.24 1.82 1.79 1.57 1.51 1.55 1.59 1.58 1.89 2.28 2.55 2.48 2.22 2.32 2.68 3.21 3.92 4.21 3.96 3.55 3.35 3.18 3.16 2.93 2.33 1.94 1.78 1.57 1.45
2.85 2.86 3.02 2.99 3.04 3.14 3.10 3.10 3.24 3.07 2.72 2.98 3.32 3.37 2.72 2.32 1.89 1.44 1.54 1.64 1.76 1.83 1.90 2.03 2.25 2.47 2.46 2.59 2.35 2.29 2.93 3.74 4.22 4.12 3.77 3.31 3.13 3.00 2.70 2.47 2.19 1.95 1.82
3.06 3.04 3.00 2.91 2.91 2.73 2.78 2.86 2.90 2.92 2.85 2.79 3.11 3.43 3.01 2.53 2.20 1.69 1.57 1.59 1.81 2.07 2.09 2.11 2.15 2.38 2.51 2.89 2.99 2.67 2.49 2.87 3.64 4.39 4.39 3.77 3.17 2.87 2.79 2.73 2.62 2.34 2.13
2.87 2.68 2.62 2.76 2.77 2.57 2.58 2.28 2.42 2.62 2.63 2.49 2.76 2.84 2.87 2.86 2.78 2.14 1.72 1.57 1.71 1.91 2.10 2.02 2.04 2.29 2.57 2.85 3.09 2.96 2.50 2.30 2.64 3.58 4.21 4.10 3.61 3.11 2.85 2.86 3.10 3.03 2.62
2.59 2.27 2.30 2.47 2.45 2.37 2.27 2.16 2.32 2.22 2.19 2.23 2.44 2.64 2.73 2.79 2.69 2.54 2.14 2.07 2.01 1.90 1.87 1.93 2.11 2.22 2.43 2.76 3.09 2.87 2.69 2.47 2.30 2.46 2.97 3.43 3.59 3.44 3.28 3.49 3.93 4.10 3.82
2.25 1.99 1.92 2.07 2.19 2.21 2.15 2.14 2.22 2.12 2.14 2.27 2.27 2.34 2.58 2.60 2.58 2.73 2.36 2.20 2.16 1.92 1.90 2.02 2.03 2.21 2.30 2.51 2.63 2.72 2.61 2.41 2.25 2.21 2.34 2.63 2.92 3.06 3.19 3.49 4.02 4.42 4.59
1.92 1.88 1.91 1.98 2.03 2.07 1.94 2.02 2.09 2.13 2.26 2.32 2.25 2.20 2.34 2.41 2.53 2.76 2.70 2.44 2.31 2.12 2.18 2.14 2.00 2.05 1.98 2.11 2.22 2.24 2.05 1.95 1.85 1.82 1.89 2.00 2.05 2.23 2.54 2.97 3.47 3.96 4.24
1.92 1.99 1.96 1.84 1.79 1.89 1.79 2.04 1.99 2.04 2.23 2.27 2.06 2.29 2.35 2.38 2.66 2.86 2.96 3.05 2.77 2.50 2.41 2.36 2.23 2.04 1.99 1.98 2.00 1.92 1.71 1.66 1.45 1.44 1.52 1.63 1.68 1.76 2.00 2.27 2.67 2.94 3.15
2.00 2.11 2.06 1.94 1.84 1.92 2.03 2.30 2.23 2.20 2.41 2.37 2.32 2.50 2.48 2.46 2.63 2.74 2.93 3.15 3.23 2.90 2.71 2.65 2.46 2.14 2.00 1.98 1.99 1.77 1.79 1.73 1.50 1.39 1.31 1.27 1.34 1.45 1.53 1.65 1.85 2.00 2.21
1.84 2.01 2.15 2.07 2.00 2.03 2.18 2.36 2.37 2.52 2.66 2.61 2.65 2.75 2.71 2.58 2.70 2.78 2.80 3.03 3.30 3.21 2.87 2.49 2.27 2.01 1.89 1.77 1.95 1.75 1.77 1.76 1.57 1.42 1.22 1.13 1.16 1.24 1.27 1.31 1.40 1.52 1.70
1.81 1.88 2.07 2.14 2.11 2.15 2.23 2.27 2.26 2.55 2.66 2.64 2.61 2.62 2.61 2.73 2.75 2.69 2.78 2.93 3.18 3.25 2.89 2.37 2.25 2.20 2.17 2.06 2.05 1.92 1.79 1.69 1.49 1.37 1.22 1.18 1.16 1.18 1.21 1.26 1.30 1.28 1.32
1.88 1.91 2.03 2.05 1.97 1.97 2.15 2.19 2.25 2.52 2.65 2.55 2.53 2.54 2.34 2.39 2.44 2.34 2.48 2.54 2.67 2.91 2.85 2.54 2.50 2.48 2.42 2.28 2.24 2.19 1.99 1.74 1.46 1.42 1.27 1.21 1.21 1.19 1.17 1.19 1.23 1.24 1.26
1.78 1.83 1.84 1.87 1.91 2.01 2.11 2.12 2.12 2.15 2.17 2.26 2.48 2.59 2.39 2.36 2.27 2.25 2.26 2.24 2.32 2.45 2.64 2.56 2.47 2.52 2.45 2.42 2.34 2.13 1.98 1.84 1.53 1.46 1.42 1.32 1.25 1.17 1.14 1.13 1.15 1.23 1.35
1.62 1.70 1.78 1.88 1.93 1.98 2.01 2.08 2.12 2.07 2.06 2.11 2.25 2.31 2.28 2.24 2.20 2.28 2.17 2.14 2.21 2.34 2.47 2.50 2.43 2.52 2.52 2.45 2.45 2.25 2.24 2.09 1.93 1.70 1.62 1.49 1.48 1.42 1.32 1.22 1.17 1.18 1.29
1.68 1.76 1.82 1.84 1.84 1.83 1.75 1.78 1.87 1.89 2.02 1.98 1.89 1.90 1.93 1.97 1.96 1.97 1.82 1.96 2.16 2.27 2.32 2.35 2.34 2.49 2.65 2.67 2.49 2.42 2.47 2.43 2.26 1.96 1.81 1.63 1.56 1.47 1.43 1.38 1.31 1.23 1.21
1.77 1.80 1.77 1.81 1.82 1.59 1.75 1.75 1.75 1.85 1.94 1.93 1.84 1.74 1.65 1.64 1.58 1.58 1.55 1.63 1.87 2.06 2.17 2.27 2.25 2.36 2.59 2.77 2.83 2.78 2.64 2.55 2.52 2.35 2.21 2.11 1.88 1.74 1.62 1.48 1.44 1.35 1.24
1.88 1.84 1.78 1.78 1.82 1.89 1.92 1.74 1.59 1.57 1.68 1.73 1.71 1.70 1.50 1.40 1.55 1.51 1.56 1.53 1.55 1.68 1.83 2.01 2.09 2.07 2.25 2.50 2.71 2.64 2.71 2.73 2.72 2.73 2.70 2.62 2.28 2.00 1.73 1.55 1.42 1.15 1.04
2.07 2.05 2.00 1.91 1.90 1.88 1.84 1.62 1.62 1.57 1.63 1.64 1.66 1.70 1.68 1.58 1.61 1.71 1.69 1.62 1.51 1.46 1.54 1.61 1.73 1.85 2.06 2.34 2.58 2.55 2.56 2.62 2.65 2.64 2.68 2.67 2.37 2.16 1.88 1.66 1.55 1.27 1.07
2.20 2.12 2.07 2.08 2.01 2.02 2.08 1.89 1.90 1.77 1.79 1.82 1.84 1.84 1.79 1.68 1.77 1.71 1.65 1.65 1.59 1.56 1.61 1.67 1.64 1.74 1.96 2.07 2.22 2.29 2.27 2.31 2.23 2.13 2.25 2.41 2.38 2.29 2.13 1.84 1.59 1.40 1.14
2.24 2.25 2.24 2.22 2.21 2.25 2.47 2.28 2.10 1.96 1.98 1.98 2.05 2.03 2.05 1.86 1.83 1.74 1.63 1.65 1.66 1.67 1.72 1.67 1.61 1.57 1.59 1.77 1.96 2.00 2.14 2.28 2.16 1.96 1.73 1.85 2.03 2.23 2.34 2.11 1.84 1.64 1.50

GEFSMA_prec_meanprecacc_282.txt.gz
Total_Precipitation_Accumulation
2.42 2.42 2.40 2.35 2.22 2.30 2.55 2.75 2.75 3.10 3.25 2.87 2.49 2.32 2.34 2.43 2.31 2.28 2.16 2.01 1.98 2.20 2.67 2.92 2.81 2.59 2.31 2.06 1.91 1.86 1.72 1.54 1.44 1.32 1.27 1.36 1.39 1.32 1.22 1.14 1.09 1.03 0.95
2.58 2.74 2.66 2.58 2.41 2.39 2.57 2.77 2.95 3.41 3.37 3.20 2.78 2.54 2.47 2.42 2.24 2.15 2.25 2.40 2.25 2.17 2.33 2.71 3.03 2.99 2.83 2.55 2.26 2.12 1.97 1.88 1.69 1.40 1.24 1.31 1.40 1.40 1.39 1.35 1.26 1.13 0.99
2.62 2.66 2.52 2.42 2.48 2.60 2.79 2.83 3.04 3.25 2.97 2.99 2.80 2.60 2.41 2.21 2.07 2.03 2.20 2.37 2.26 2.21 2.36 2.60 2.89 3.00 3.14 3.17 3.03 2.83 2.40 2.07 1.88 1.65 1.40 1.34 1.37 1.35 1.35 1.38 1.37 1.22 1.04
2.50 2.75 2.54 2.38 2.69 2.71 2.87 3.17 3.32 3.28 3.23 3.25 3.00 2.61 2.36 2.26 1.94 1.82 1.81 1.98 2.21 2.00 2.32 2.58 2.65 2.78 3.15 3.53 3.77 3.74 3.32 2.78 2.36 2.05 1.80 1.63 1.59 1.46 1.27 1.21 1.26 1.22 1.04
2.56 2.88 2.86 2.93 2.95 3.05 3.11 2.97 3.41 3.47 3.36 3.38 2.95 2.71 2.38 2.11 1.91 1.72 1.63 1.63 1.87 2.08 2.22 2.28 2.38 2.55 3.04 3.81 4.16 4.21 4.14 3.70 3.03 2.62 2.44 2.27 2.13 1.83 1.51 1.34 1.29 1.22 1.10
2.68 3.10 2.96 2.92 2.99 3.16 3.23 3.21 3.38 3.43 3.17 3.15 2.83 2.71 2.32 1.85 1.76 1.70 1.53 1.52 1.63 1.68 1.97 2.28 2.52 2.27 2.62 3.24 3.68 4.22 4.57 4.32 3.65 3.19 3.02 2.88 2.77 2.44 1.89 1.60 1.52 1.42 1.28
2.71 3.14 2.95 3.19 3.14 3.12 3.14 3.20 3.33 3.27 2.98 3.17 3.24 2.81 2.25 1.83 1.80 1.58 1.52 1.56 1.61 1.60 1.92 2.32 2.60 2.53 2.28 2.36 2.72 3.25 3.97 4.29 4.05 3.64 3.44 3.25 3.23 2.99 2.38 2.01 1.86 1.65 1.53
2.92 2.94 3.11 3.06 3.10 3.21 3.16 3.16 3.30 3.11 2.76 3.02 3.36 3.42 2.76 2.35 1.90 1.44 1.55 1.66 1.78 1.86 1.93 2.06 2.27 2.51 2.51 2.64 2.40 2.33 2.97 3.79 4.28 4.21 3.86 3.39 3.19 3.05 2.74 2.52 2.25 2.01 1.88
3.14 3.13 3.08 2.96 2.96 2.77 2.83 2.92 2.95 2.98 2.90 2.82 3.15 3.48 3.05 2.57 2.23 1.70 1.58 1.60 1.82 2.09 2.12 2.13 2.17 2.41 2.55 2.96 3.05 2.71 2.53 2.93 3.71 4.48 4.46 3.85 3.22 2.90 2.83 2.78 2.67 2.39 2.19
2.94 2.75 2.68 2.82 2.83 2.63 2.64 2.33 2.46 2.67 2.68 2.53 2.79 2.88 2.92 2.90 2.82 2.16 1.73 1.57 1.72 1.93 2.12 2.05 2.07 2.31 2.61 2.91 3.17 3.03 2.56 2.36 2.71 3.65 4.26 4.18 3.68 3.17 2.90 2.90 3.14 3.07 2.68
2.63 2.30 2.33 2.52 2.49 2.41 2.31 2.20 2.35 2.26 2.22 2.27 2.48 2.68 2.76 2.82 2.71 2.56 2.17 2.09 2.02 1.90 1.88 1.95 2.15 2.28 2.51 2.85 3.18 2.96 2.79 2.56 2.37 2.51 3.02 3.49 3.67 3.50 3.34 3.55 4.01 4.19 3.90
2.28 2.02 1.94 2.10 2.21 2.23 2.19 2.18 2.25 2.15 2.18 2.32 2.32 2.38 2.61 2.64 2.60 2.76 2.39 2.23 2.18 1.94 1.92 2.05 2.08 2.27 2.38 2.62 2.73 2.83 2.74 2.53 2.34 2.27 2.39 2.69 2.98 3.14 3.26 3.57 4.11 4.52 4.67
1.95 1.90 1.93 2.01 2.05 2.09 1.96 2.05 2.12 2.16 2.30 2.36 2.29 2.24 2.37 2.44 2.56 2.79 2.73 2.47 2.33 2.13 2.21 2.18 2.05 2.12 2.06 2.23 2.37 2.43 2.24 2.10 1.96 1.90 1.96 2.07 2.13 2.32 2.61 3.05 3.57 4.05 4.35
1.95 2.02 1.99 1.87 1.81 1.91 1.81 2.06 2.00 2.06 2.26 2.31 2.09 2.31 2.37 2.41 2.69 2.90 3.00 3.09 2.80 2.52 2.44 2.40 2.28 2.11 2.08 2.11 2.18 2.14 1.93 1.84 1.58 1.54 1.61 1.71 1.77 1.85 2.06 2.33 2.77 3.09 3.27
2.01 2.13 2.08 1.96 1.85 1.93 2.05 2.32 2.26 2.22 2.44 2.40 2.35 2.53 2.51 2.48 2.65 2.77 2.96 3.17 3.26 2.94 2.75 2.70 2.51 2.21 2.09 2.09 2.14 1.94 1.96 1.88 1.63 1.50 1.40 1.35 1.41 1.52 1.59 1.72 1.95 2.13 2.30
1.85 2.03 2.16 2.08 2.01 2.04 2.19 2.38 2.39 2.54 2.67 2.64 2.67 2.77 2.74 2.61 2.72 2.80 2.83 3.06 3.33 3.25 2.92 2.54 2.32 2.07 1.95 1.84 2.06 1.86 1.88 1.87 1.68 1.50 1.30 1.20 1.22 1.29 1.32 1.37 1.46 1.58 1.76
1.82 1.89 2.09 2.16 2.13 2.16 2.24 2.29 2.27 2.57 2.69 2.68 2.64 2.65 2.64 2.76 2.79 2.72 2.82 2.98 3.23 3.29 2.94 2.41 2.29 2.25 2.23 2.13 2.13 1.99 1.86 1.77 1.55 1.42 1.27 1.22 1.20 1.22 1.27 1.30 1.34 1.33 1.38
1.88 1.92 2.04 2.07 1.98 1.97 2.15 2.20 2.26 2.54 2.68 2.59 2.55 2.56 2.36 2.42 2.48 2.38 2.51 2.59 2.72 2.95 2.90 2.58 2.54 2.52 2.45 2.32 2.30 2.25 2.04 1.79 1.51 1.46 1.30 1.24 1.25 1.24 1.23 1.24 1.28 1.29 1.31
1.78 1.83 1.86 1.88 1.92 2.02 2.12 2.13 2.14 2.17 2.19 2.29 2.50 2.61 2.41 2.38 2.29 2.28 2.30 2.28 2.36 2.48 2.68 2.60 2.50 2.55 2.48 2.47 2.38 2.18 2.02 1.89 1.56 1.50 1.46 1.36 1.30 1.23 1.19 1.18 1.19 1.28 1.40
1.63 1.72 1.79 1.89 1.94 1.99 2.03 2.10 2.17 2.10 2.08 2.13 2.27 2.33 2.31 2.27 2.23 2.31 2.21 2.18 2.25 2.38 2.50 2.52 2.45 2.55 2.55 2.49 2.50 2.30 2.28 2.14 1.96 1.72 1.65 1.53 1.53 1.49 1.38 1.27 1.21 1.23 1.36
1.70 1.77 1.84 1.86 1.86 1.85 1.78 1.81 1.90 1.92 2.04 2.00 1.91 1.92 1.94 1.98 1.98 1.99 1.85 2.00 2.20 2.31 2.35 2.37 2.36 2.51 2.68 2.71 2.54 2.46 2.51 2.48 2.30 1.99 1.85 1.68 1.61 1.54 1.51 1.45 1.36 1.27 1.27
1.79 1.82 1.78 1.83 1.84 1.60 1.77 1.79 1.79 1.89 1.96 1.96 1.87 1.77 1.67 1.66 1.60 1.60 1.56 1.64 1.89 2.08 2.20 2.30 2.29 2.39 2.62 2.81 2.88 2.82 2.68 2.60 2.57 2.39 2.25 2.16 1.94 1.81 1.70 1.56 1.52 1.42 1.31
1.90 1.86 1.79 1.79 1.83 1.89 1.93 1.77 1.62 1.59 1.70 1.76 1.74 1.72 1.52 1.42 1.56 1.53 1.57 1.55 1.56 1.70 1.85 2.04 2.13 2.10 2.28 2.55 2.76 2.68 2.75 2.77 2.76 2.76 2.73 2.67 2.33 2.06 1.78 1.60 1.48 1.22 1.10
2.09 2.06 2.01 1.92 1.91 1.88 1.85 1.65 1.64 1.59 1.64 1.65 1.68 1.72 1.70 1.60 1.62 1.72 1.70 1.64 1.53 1.48 1.56 1.63 1.75 1.87 2.09 2.38 2.63 2.60 2.62 2.67 2.68 2.66 2.70 2.69 2.40 2.19 1.91 1.70 1.59 1.31 1.10
2.22 2.13 2.08 2.09 2.02 2.03 2.09 1.91 1.92 1.78 1.80 1.82 1.85 1.85 1.80 1.69 1.79 1.73 1.66 1.66 1.60 1.57 1.62 1.69 1.67 1.78 2.00 2.11 2.26 2.35 2.32 2.36 2.27 2.16 2.27 2.44 2.41 2.32 2.16 1.88 1.62 1.43 1.17
2.24 2.26 2.25 2.22 2.21 2.25 2.48 2.29 2.11 1.97 1.99 1.98 2.06 2.04 2.06 1.88 1.86 1.77 1.64 1.66 1.67 1.68 1.73 1.69 1.65 1.62 1.64 1.83 2.05 2.08 2.24 2.38 2.24 2.02 1.78 1.90 2.08 2.27 2.39 2.15 1.87 1.66 1.52

GEFSMA_prec_meanprecacc_288.txt.gz
Total_Precipitation_Accumulation
2.46 2.48 2.47 2.42 2.27 2.35 2.60 2.78 2.77 3.13 3.29 2.91 2.52 2.35 2.37 2.47 2.35 2.32 2.19 2.03 1.99 2.22 2.68 2.94 2.84 2.63 2.36 2.09 1.95 1.89 1.75 1.58 1.48 1.34 1.30 1.39 1.42 1.38 1.30 1.23 1.19 1.14 1.06
2.62 2.80 2.72 2.64 2.46 2.42 2.61 2.81 2.97 3.45 3.41 3.24 2.82 2.56 2.49 2.45 2.26 2.18 2.29 2.43 2.26 2.18 2.34 2.73 3.06 3.03 2.88 2.61 2.31 2.16 2.01 1.91 1.73 1.42 1.27 1.35 1.44 1.45 1.44 1.42 1.34 1.21 1.08
2.67 2.70 2.56 2.46 2.51 2.62 2.82 2.86 3.06 3.29 3.00 3.02 2.84 2.62 2.44 2.25 2.09 2.06 2.23 2.41 2.28 2.22 2.37 2.61 2.91 3.04 3.18 3.23 3.11 2.91 2.46 2.12 1.93 1.69 1.45 1.39 1.42 1.40 1.39 1.44 1.44 1.28 1.11
2.54 2.78 2.58 2.42 2.73 2.74 2.89 3.20 3.35 3.30 3.26 3.29 3.04 2.65 2.40 2.30 1.97 1.85 1.83 2.01 2.25 2.04 2.35 2.61 2.68 2.82 3.19 3.59 3.85 3.82 3.39 2.86 2.44 2.13 1.87 1.69 1.64 1.50 1.31 1.24 1.31 1.27 1.11
2.58 2.90 2.90 2.96 2.99 3.08 3.14 2.99 3.43 3.49 3.38 3.40 2.97 2.74 2.40 2.13 1.93 1.74 1.66 1.66 1.89 2.12 2.25 2.32 2.41 2.58 3.07 3.86 4.22 4.27 4.20 3.75 3.09 2.68 2.50 2.33 2.17 1.88 1.56 1.38 1.32 1.27 1.16
2.70 3.12 2.99 2.96 3.02 3.19 3.27 3.24 3.42 3.46 3.20 3.16 2.84 2.74 2.34 1.86 1.77 1.71 1.54 1.55 1.66 1.70 2.01 2.33 2.57 2.32 2.65 3.27 3.73 4.27 4.62 4.37 3.70 3.24 3.07 2.93 2.82 2.49 1.96 1.66 1.56 1.46 1.33
2.72 3.17 2.99 3.22 3.17 3.17 3.18 3.24 3.38 3.30 3.01 3.19 3.28 2.84 2.28 1.85 1.83 1.60 1.53 1.58 1.63 1.63 1.96 2.37 2.65 2.58 2.33 2.40 2.77 3.30 4.01 4.33 4.08 3.68 3.48 3.29 3.28 3.03 2.42 2.05 1.89 1.69 1.57
2.93 2.97 3.15 3.10 3.16 3.28 3.22 3.22 3.36 3.16 2.81 3.06 3.41 3.47 2.81 2.40 1.94 1.46 1.56 1.67 1.81 1.90 1.98 2.11 2.32 2.57 2.57 2.70 2.45 2.37 3.03 3.85 4.33 4.26 3.91 3.44 3.24 3.11 2.78 2.55 2.27 2.03 1.91
3.16 3.16 3.11 3.01 3.02 2.83 2.92 3.00 3.02 3.03 2.96 2.88 3.21 3.56 3.13 2.65 2.30 1.72 1.59 1.61 1.84 2.14 2.17 2.19 2.22 2.46 2.60 3.01 3.09 2.74 2.58 3.00 3.78 4.54 4.53 3.90 3.27 2.94 2.87 2.81 2.69 2.41 2.22
2.96 2.78 2.71 2.86 2.88 2.67 2.71 2.38 2.53 2.72 2.73 2.58 2.86 2.95 2.99 2.96 2.88 2.22 1.77 1.59 1.73 1.95 2.15 2.08 2.12 2.37 2.65 2.95 3.22 3.07 2.60 2.42 2.78 3.73 4.34 4.24 3.74 3.22 2.95 2.95 3.18 3.10 2.72
2.66 2.33 2.36 2.55 2.52 2.44 2.35 2.24 2.40 2.31 2.28 2.33 2.55 2.75 2.83 2.90 2.77 2.62 2.21 2.13 2.06 1.92 1.90 1.98 2.19 2.33 2.56 2.90 3.24 3.01 2.82 2.58 2.42 2.59 3.11 3.56 3.73 3.56 3.38 3.60 4.06 4.23 3.96
2.33 2.05 1.96 2.13 2.24 2.27 2.22 2.20 2.28 2.20 2.25 2.39 2.39 2.45 2.68 2.70 2.67 2.82 2.44 2.28 2.24 1.98 1.95 2.08 2.12 2.32 2.43 2.68 2.77 2.87 2.78 2.56 2.38 2.33 2.46 2.76 3.04 3.19 3.31 3.63 4.18 4.58 4.74
1.98 1.94 1.96 2.05 2.09 2.13 1.99 2.07 2.15 2.21 2.38 2.44 2.37 2.30 2.42 2.49 2.62 2.85 2.79 2.51 2.37 2.17 2.24 2.21 2.09 2.16 2.10 2.28 2.40 2.47 2.28 2.14 2.02 1.97 2.02 2.13 2.19 2.38 2.66 3.10 3.65 4.17 4.49
1.97 2.04 2.01 1.89 1.83 1.93 1.83 2.09 2.04 2.11 2.33 2.37 2.14 2.37 2.42 2.45 2.74 2.95 3.04 3.13 2.84 2.56 2.48 2.44 2.31 2.14 2.11 2.14 2.21 2.17 1.97 1.89 1.63 1.60 1.66 1.76 1.83 1.91 2.12 2.40 2.90 3.27 3.40
2.03 2.15 2.10 1.98 1.87 1.95 2.08 2.35 2.31 2.27 2.49 2.46 2.41 2.58 2.55 2.53 2.70 2.82 3.01 3.23 3.32 2.99 2.79 2.75 2.56 2.24 2.12 2.14 2.18 1.98 2.00 1.92 1.68 1.56 1.46 1.41 1.48 1.59 1.67 1.80 2.05 2.21 2.37
1.86 2.06 2.18 2.11 2.03 2.07 2.23 2.42 2.44 2.58 2.72 2.71 2.75 2.83 2.79 2.67 2.77 2.84 2.88 3.12 3.39 3.32 2.98 2.64 2.42 2.12 2.00 1.88 2.10 1.91 1.94 1.92 1.73 1.56 1.37 1.27 1.31 1.38 1.40 1.43 1.53 1.64 1.81
1.85 1.93 2.12 2.20 2.16 2.19 2.28 2.34 2.32 2.63 2.75 2.76 2.72 2.72 2.70 2.82 2.84 2.76 2.86 3.03 3.29 3.36 3.02 2.50 2.37 2.30 2.27 2.17 2.18 2.04 1.91 1.82 1.62 1.49 1.34 1.30 1.29 1.32 1.35 1.37 1.39 1.38 1.43
1.90 1.94 2.07 2.10 2.01 2.00 2.20 2.24 2.31 2.59 2.75 2.64 2.61 2.60 2.40 2.46 2.53 2.42 2.56 2.63 2.77 3.01 2.96 2.65 2.59 2.54 2.48 2.36 2.34 2.29 2.08 1.83 1.56 1.53 1.37 1.30 1.31 1.31 1.30 1.30 1.33 1.33 1.36
1.79 1.84 1.88 1.91 1.95 2.06 2.16 2.17 2.19 2.21 2.24 2.33 2.54 2.64 2.43 2.41 2.32 2.31 2.33 2.32 2.40 2.52 2.73 2.66 2.56 2.59 2.52 2.51 2.42 2.21 2.05 1.93 1.60 1.54 1.51 1.40 1.34 1.27 1.23 1.22 1.24 1.32 1.44
1.64 1.73 1.81 1.90 1.97 2.02 2.06 2.14 2.20 2.13 2.12 2.17 2.31 2.37 2.35 2.31 2.26 2.35 2.25 2.22 2.29 2.43 2.55 2.59 2.51 2.60 2.59 2.54 2.55 2.34 2.33 2.19 2.00 1.75 1.69 1.57 1.57 1.52 1.41 1.29 1.24 1.26 1.39
1.72 1.79 1.86 1.88 1.89 1.88 1.80 1.83 1.92 1.94 2.06 2.02 1.93 1.96 1.98 2.02 2.01 2.03 1.89 2.05 2.27 2.39 2.43 2.44 2.43 2.58 2.73 2.75 2.59 2.52 2.57 2.53 2.33 2.01 1.88 1.72 1.65 1.57 1.54 1.47 1.38 1.29 1.29
1.80 1.84 1.80 1.85 1.86 1.62 1.79 1.80 1.80 1.91 1.98 1.98 1.90 1.79 1.70 1.70 1.63 1.62 1.59 1.67 1.94 2.14 2.26 2.36 2.34 2.46 2.68 2.86 2.94 2.88 2.74 2.64 2.60 2.42 2.28 2.19 1.97 1.85 1.74 1.61 1.56 1.45 1.33
1.91 1.87 1.81 1.81 1.85 1.91 1.96 1.78 1.64 1.61 1.72 1.78 1.76 1.74 1.54 1.44 1.59 1.56 1.60 1.57 1.59 1.73 1.88 2.09 2.18 2.15 2.34 2.61 2.83 2.75 2.82 2.83 2.79 2.80 2.78 2.70 2.36 2.09 1.82 1.65 1.53 1.28 1.16
2.10 2.07 2.02 1.94 1.93 1.91 1.88 1.68 1.67 1.61 1.65 1.67 1.70 1.74 1.72 1.61 1.64 1.75 1.73 1.67 1.55 1.50 1.58 1.66 1.78 1.91 2.13 2.43 2.69 2.66 2.70 2.75 2.74 2.70 2.75 2.74 2.44 2.23 1.96 1.76 1.67 1.39 1.18
2.24 2.15 2.09 2.10 2.04 2.05 2.12 1.93 1.93 1.80 1.81 1.84 1.87 1.87 1.83 1.71 1.81 1.75 1.69 1.69 1.63 1.60 1.64 1.71 1.69 1.81 2.04 2.15 2.30 2.40 2.37 2.43 2.36 2.24 2.35 2.52 2.48 2.40 2.23 1.95 1.69 1.51 1.24
2.25 2.26 2.26 2.22 2.22 2.26 2.49 2.30 2.12 1.98 2.00 2.00 2.08 2.06 2.08 1.91 1.89 1.80 1.68 1.71 1.71 1.71 1.77 1.72 1.70 1.65 1.67 1.87 2.09 2.13 2.29 2.46 2.33 2.12 1.87 2.00 2.18 2.38 2.49 2.25 1.95 1.74 1.60

GEFSMA_prec_meanprecacc_294.txt.gz
Total_Precipitation_Accumulation
2.50 2.52 2.52 2.47 2.33 2.39 2.65 2.84 2.82 3.17 3.35 2.98 2.60 2.41 2.42 2.51 2.40 2.37 2.24 2.09 2.04 2.26 2.72 2.98 2.88 2.67 2.41 2.14 2.00 1.94 1.79 1.62 1.52 1.39 1.34 1.44 1.47 1.43 1.38 1.34 1.30 1.24 1.20
2.69 2.85 2.78 2.69 2.50 2.47 2.64 2.83 3.00 3.48 3.46 3.30 2.89 2.63 2.53 2.49 2.31 2.24 2.33 2.47 2.30 2.22 2.38 2.76 3.11 3.08 2.93 2.65 2.34 2.20 2.04 1.95 1.76 1.45 1.30 1.38 1.49 1.49 1.49 1.50 1.43 1.31 1.24
2.73 2.74 2.61 2.51 2.54 2.65 2.84 2.88 3.10 3.33 3.05 3.07 2.90 2.69 2.49 2.28 2.12 2.10 2.26 2.43 2.30 2.24 2.40 2.65 2.96 3.08 3.24 3.29 3.15 2.94 2.50 2.16 1.96 1.72 1.48 1.42 1.45 1.43 1.42 1.48 1.49 1.35 1.21
2.57 2.81 2.59 2.44 2.75 2.75 2.91 3.22 3.38 3.32 3.28 3.31 3.07 2.68 2.44 2.34 2.00 1.89 1.86 2.03 2.27 2.06 2.38 2.64 2.73 2.87 3.25 3.65 3.90 3.87 3.46 2.93 2.49 2.17 1.89 1.71 1.66 1.53 1.34 1.27 1.34 1.31 1.15
2.59 2.91 2.91 2.98 3.00 3.10 3.15 3.00 3.44 3.51 3.40 3.43 3.00 2.77 2.44 2.17 1.97 1.78 1.70 1.69 1.92 2.14 2.27 2.34 2.45 2.61 3.12 3.91 4.26 4.33 4.26 3.82 3.15 2.73 2.53 2.37 2.21 1.91 1.59 1.40 1.35 1.29 1.19
2.71 3.13 3.00 2.97 3.03 3.20 3.27 3.24 3.43 3.47 3.21 3.18 2.87 2.78 2.39 1.92 1.82 1.77 1.60 1.60 1.71 1.74 2.06 2.38 2.61 2.36 2.70 3.33 3.78 4.33 4.68 4.43 3.75 3.30 3.13 2.98 2.88 2.54 2.00 1.70 1.60 1.49 1.36
2.73 3.18 3.00 3.24 3.18 3.18 3.19 3.24 3.39 3.31 3.03 3.22 3.31 2.89 2.31 1.88 1.86 1.64 1.59 1.63 1.69 1.68 2.03 2.44 2.70 2.64 2.37 2.45 2.83 3.36 4.09 4.41 4.16 3.76 3.56 3.36 3.35 3.10 2.48 2.11 1.95 1.75 1.62
2.94 2.98 3.16 3.12 3.17 3.29 3.23 3.22 3.37 3.17 2.82 3.08 3.44 3.51 2.83 2.41 1.96 1.48 1.59 1.70 1.84 1.94 2.04 2.17 2.38 2.63 2.62 2.74 2.48 2.42 3.08 3.92 4.40 4.33 3.97 3.50 3.30 3.16 2.84 2.61 2.33 2.10 1.96
3.17 3.17 3.13 3.03 3.04 2.85 2.93 3.01 3.03 3.05 2.97 2.91 3.24 3.58 3.16 2.66 2.31 1.74 1.61 1.63 1.87 2.16 2.20 2.22 2.26 2.50 2.64 3.04 3.11 2.77 2.60 3.03 3.83 4.61 4.58 3.95 3.32 3.00 2.91 2.86 2.76 2.48 2.27
2.98 2.80 2.73 2.88 2.91 2.69 2.72 2.40 2.55 2.74 2.76 2.61 2.88 2.97 3.01 2.99 2.90 2.23 1.79 1.62 1.77 1.98 2.17 2.11 2.14 2.40 2.68 2.98 3.24 3.10 2.63 2.44 2.81 3.78 4.39 4.29 3.78 3.27 3.00 3.01 3.25 3.17 2.78
2.70 2.37 2.38 2.57 2.54 2.45 2.37 2.26 2.42 2.32 2.29 2.36 2.58 2.77 2.85 2.93 2.82 2.65 2.23 2.16 2.09 1.95 1.93 2.00 2.22 2.37 2.60 2.94 3.28 3.05 2.87 2.62 2.45 2.62 3.16 3.61 3.77 3.61 3.44 3.67 4.12 4.30 4.02
2.37 2.09 1.99 2.16 2.27 2.29 2.26 2.25 2.32 2.23 2.28 2.42 2.42 2.47 2.70 2.73 2.69 2.85 2.46 2.31 2.28 2.02 1.98 2.11 2.15 2.36 2.48 2.72 2.81 2.92 2.82 2.59 2.41 2.37 2.53 2.83 3.09 3.24 3.37 3.73 4.28 4.67 4.84
2.00 1.95 1.97 2.07 2.10 2.16 2.03 2.11 2.18 2.25 2.42 2.49 2.40 2.32 2.45 2.51 2.63 2.87 2.82 2.55 2.41 2.21 2.28 2.24 2.12 2.20 2.15 2.31 2.43 2.50 2.31 2.18 2.06 2.00 2.06 2.20 2.25 2.42 2.71 3.19 3.75 4.28 4.62
1.98 2.05 2.03 1.91 1.86 1.96 1.86 2.12 2.08 2.16 2.40 2.46 2.22 2.44 2.48 2.50 2.79 3.01 3.10 3.19 2.88 2.59 2.52 2.48 2.35 2.18 2.16 2.18 2.24 2.20 2.00 1.93 1.67 1.64 1.71 1.81 1.88 1.95 2.17 2.47 2.97 3.34 3.48
2.04 2.18 2.14 2.01 1.89 1.97 2.11 2.39 2.35 2.32 2.53 2.51 2.47 2.65 2.62 2.59 2.77 2.90 3.08 3.29 3.37 3.04 2.83 2.80 2.62 2.32 2.20 2.19 2.22 2.00 2.02 1.95 1.71 1.60 1.50 1.45 1.52 1.64 1.71 1.85 2.10 2.27 2.44
1.89 2.09 2.23 2.14 2.05 2.08 2.26 2.46 2.47 2.62 2.75 2.74 2.80 2.88 2.83 2.70 2.81 2.88 2.92 3.17 3.46 3.39 3.04 2.70 2.47 2.19 2.06 1.91 2.14 1.93 1.97 1.96 1.76 1.60 1.41 1.32 1.35 1.41 1.43 1.47 1.57 1.69 1.88
1.87 1.96 2.15 2.22 2.17 2.21 2.32 2.38 2.36 2.66 2.78 2.79 2.75 2.74 2.72 2.84 2.86 2.78 2.89 3.07 3.34 3.42 3.06 2.54 2.42 2.35 2.33 2.21 2.20 2.06 1.93 1.86 1.66 1.53 1.38 1.35 1.34 1.36 1.40 1.41 1.44 1.44 1.49
1.92 1.96 2.10 2.13 2.03 2.03 2.24 2.28 2.34 2.62 2.77 2.66 2.63 2.62 2.41 2.47 2.54 2.44 2.59 2.67 2.81 3.06 3.01 2.70 2.64 2.59 2.53 2.39 2.37 2.31 2.10 1.85 1.59 1.57 1.41 1.35 1.37 1.38 1.38 1.39 1.42 1.42 1.45
1.80 1.86 1.89 1.93 1.99 2.10 2.20 2.21 2.23 2.24 2.26 2.34 2.56 2.67 2.45 2.42 2.32 2.32 2.35 2.34 2.43 2.56 2.78 2.71 2.60 2.63 2.56 2.55 2.45 2.23 2.07 1.96 1.62 1.58 1.56 1.46 1.40 1.33 1.31 1.31 1.33 1.42 1.55
1.65 1.74 1.81 1.92 1.99 2.04 2.09 2.17 2.24 2.16 2.14 2.18 2.32 2.39 2.35 2.32 2.26 2.35 2.26 2.24 2.32 2.47 2.59 2.63 2.56 2.65 2.64 2.59 2.59 2.37 2.36 2.21 2.02 1.78 1.74 1.62 1.61 1.56 1.46 1.35 1.30 1.33 1.47
1.73 1.80 1.87 1.90 1.90 1.89 1.82 1.86 1.95 1.96 2.08 2.04 1.96 1.98 2.00 2.03 2.02 2.05 1.91 2.07 2.29 2.43 2.47 2.48 2.47 2.64 2.79 2.81 2.63 2.55 2.59 2.55 2.35 2.04 1.92 1.75 1.68 1.59 1.58 1.52 1.42 1.34 1.34
1.82 1.85 1.81 1.86 1.87 1.63 1.80 1.82 1.81 1.92 1.99 1.99 1.91 1.81 1.72 1.72 1.65 1.65 1.61 1.70 1.96 2.16 2.28 2.39 2.37 2.48 2.72 2.91 3.00 2.95 2.81 2.69 2.63 2.45 2.32 2.22 2.01 1.88 1.77 1.64 1.59 1.48 1.37
1.94 1.89 1.82 1.83 1.86 1.92 1.97 1.79 1.65 1.62 1.73 1.79 1.77 1.75 1.55 1.46 1.62 1.60 1.62 1.59 1.61 1.74 1.90 2.11 2.20 2.18 2.37 2.64 2.88 2.80 2.92 2.94 2.87 2.85 2.82 2.73 2.39 2.12 1.84 1.67 1.56 1.33 1.23
2.12 2.09 2.03 1.95 1.94 1.92 1.89 1.69 1.68 1.62 1.66 1.68 1.71 1.75 1.73 1.63 1.66 1.78 1.75 1.68 1.57 1.52 1.59 1.69 1.81 1.94 2.16 2.47 2.74 2.70 2.75 2.83 2.86 2.83 2.84 2.80 2.47 2.26 1.98 1.80 1.72 1.45 1.23
2.25 2.16 2.10 2.11 2.05 2.06 2.13 1.94 1.95 1.81 1.82 1.85 1.88 1.88 1.83 1.71 1.82 1.79 1.72 1.72 1.66 1.63 1.68 1.75 1.73 1.85 2.09 2.21 2.37 2.46 2.42 2.48 2.41 2.33 2.45 2.61 2.54 2.43 2.26 1.99 1.74 1.54 1.27
2.28 2.28 2.27 2.23 2.23 2.27 2.50 2.31 2.14 1.99 2.01 2.01 2.10 2.08 2.09 1.92 1.90 1.84 1.70 1.73 1.75 1.75 1.82 1.78 1.75 1.71 1.74 1.94 2.16 2.21 2.36 2.53 2.40 2.18 1.96 2.10 2.27 2.44 2.54 2.29 1.99 1.78 1.64

GEFSMA_prec_meanprecacc_300.txt.gz
Total_Precipitation_Accumulation
2.53 2.55 2.55 2.50 2.35 2.42 2.69 2.87 2.85 3.20 3.38 3.01 2.62 2.44 2.45 2.55 2.42 2.39 2.25 2.13 2.09 2.32 2.79 3.06 2.97 2.78 2.52 2.27 2.10 2.03 1.87 1.69 1.59 1.46 1.39 1.49 1.52 1.48 1.43 1.41 1.37 1.31 1.28
2.73 2.89 2.82 2.73 2.55 2.51 2.66 2.85 3.02 3.50 3.48 3.33 2.92 2.65 2.56 2.52 2.33 2.25 2.36 2.51 2.34 2.26 2.43 2.83 3.18 3.17 3.03 2.77 2.45 2.30 2.14 2.03 1.84 1.51 1.35 1.43 1.53 1.55 1.55 1.55 1.49 1.40 1.34
2.78 2.79 2.65 2.56 2.59 2.68 2.87 2.90 3.12 3.36 3.07 3.10 2.94 2.72 2.51 2.31 2.15 2.12 2.29 2.46 2.32 2.28 2.45 2.71 3.02 3.15 3.32 3.39 3.27 3.04 2.60 2.26 2.05 1.78 1.53 1.47 1.50 1.48 1.47 1.52 1.53 1.43 1.30
2.60 2.83 2.62 2.47 2.78 2.79 2.94 3.24 3.41 3.36 3.31 3.34 3.10 2.71 2.46 2.36 2.03 1.91 1.88 2.05 2.29 2.07 2.40 2.68 2.78 2.93 3.34 3.76 4.02 3.99 3.57 3.03 2.57 2.24 1.95 1.76 1.71 1.57 1.38 1.31 1.38 1.36 1.21
2.63 2.94 2.93 3.00 3.02 3.12 3.18 3.02 3.46 3.52 3.41 3.44 3.02 2.81 2.47 2.18 1.99 1.80 1.72 1.71 1.93 2.15 2.29 2.36 2.49 2.67 3.20 4.03 4.38 4.46 4.39 3.92 3.22 2.80 2.61 2.42 2.26 1.96 1.64 1.45 1.40 1.34 1.24
2.74 3.16 3.02 3.00 3.05 3.22 3.30 3.27 3.44 3.48 3.22 3.19 2.90 2.82 2.42 1.95 1.84 1.79 1.62 1.62 1.73 1.77 2.09 2.42 2.65 2.41 2.77 3.42 3.88 4.44 4.80 4.53 3.83 3.37 3.21 3.07 2.96 2.61 2.06 1.75 1.65 1.54 1.41
2.76 3.21 3.03 3.27 3.20 3.20 3.21 3.26 3.40 3.32 3.04 3.24 3.33 2.92 2.36 1.92 1.89 1.67 1.61 1.66 1.71 1.70 2.04 2.46 2.73 2.67 2.41 2.50 2.89 3.44 4.18 4.50 4.26 3.86 3.66 3.46 3.44 3.17 2.54 2.16 1.99 1.78 1.66
2.97 3.01 3.19 3.13 3.19 3.31 3.25 3.24 3.38 3.18 2.83 3.11 3.46 3.54 2.87 2.45 1.99 1.51 1.62 1.73 1.88 1.97 2.06 2.19 2.40 2.66 2.65 2.77 2.52 2.47 3.16 4.03 4.50 4.42 4.06 3.58 3.37 3.23 2.89 2.66 2.38 2.14 2.01
3.19 3.20 3.16 3.05 3.06 2.87 2.94 3.03 3.04 3.06 2.99 2.94 3.27 3.62 3.19 2.69 2.34 1.77 1.63 1.65 1.90 2.19 2.23 2.25 2.29 2.53 2.68 3.08 3.16 2.83 2.68 3.11 3.91 4.70 4.68 4.03 3.38 3.06 2.97 2.91 2.79 2.52 2.32
2.99 2.82 2.75 2.90 2.92 2.70 2.74 2.41 2.56 2.76 2.79 2.64 2.92 3.01 3.05 3.03 2.93 2.26 1.81 1.64 1.80 2.01 2.21 2.16 2.19 2.44 2.72 3.02 3.30 3.17 2.71 2.51 2.88 3.87 4.50 4.41 3.89 3.35 3.05 3.04 3.28 3.21 2.82
2.72 2.40 2.41 2.60 2.56 2.47 2.39 2.29 2.44 2.35 2.32 2.39 2.62 2.82 2.90 2.98 2.86 2.68 2.25 2.18 2.12 1.98 1.96 2.05 2.27 2.41 2.64 2.96 3.30 3.08 2.91 2.68 2.50 2.70 3.25 3.71 3.87 3.69 3.52 3.73 4.18 4.36 4.07
2.39 2.13 2.02 2.19 2.29 2.32 2.29 2.27 2.35 2.27 2.31 2.45 2.46 2.52 2.75 2.76 2.73 2.89 2.49 2.33 2.31 2.06 2.03 2.14 2.18 2.39 2.50 2.74 2.83 2.95 2.85 2.63 2.46 2.42 2.58 2.88 3.16 3.32 3.44 3.79 4.35 4.76 4.94
2.02 1.99 2.00 2.08 2.12 2.18 2.06 2.13 2.21 2.28 2.45 2.52 2.43 2.37 2.49 2.54 2.66 2.90 2.86 2.58 2.44 2.24 2.32 2.28 2.15 2.22 2.17 2.34 2.46 2.54 2.34 2.21 2.08 2.04 2.11 2.24 2.30 2.50 2.78 3.23 3.80 4.36 4.71
2.01 2.08 2.06 1.92 1.88 1.99 1.88 2.15 2.10 2.19 2.43 2.49 2.25 2.48 2.51 2.53 2.82 3.04 3.13 3.21 2.90 2.61 2.55 2.51 2.38 2.20 2.18 2.22 2.27 2.23 2.02 1.95 1.69 1.67 1.74 1.84 1.91 2.00 2.21 2.51 3.03 3.40 3.55
2.08 2.21 2.17 2.05 1.93 2.01 2.14 2.43 2.39 2.35 2.56 2.54 2.51 2.69 2.64 2.61 2.79 2.92 3.10 3.31 3.39 3.05 2.86 2.83 2.64 2.34 2.22 2.24 2.26 2.03 2.05 1.98 1.74 1.63 1.53 1.48 1.56 1.67 1.74 1.88 2.15 2.34 2.49
1.94 2.14 2.27 2.18 2.07 2.11 2.29 2.49 2.51 2.65 2.81 2.81 2.87 2.93 2.87 2.72 2.83 2.89 2.93 3.18 3.47 3.40 3.06 2.71 2.49 2.22 2.09 1.96 2.18 1.97 1.99 1.99 1.79 1.63 1.45 1.35 1.39 1.46 1.47 1.50 1.60 1.75 1.91
1.90 1.98 2.18 2.25 2.20 2.23 2.34 2.42 2.38 2.69 2.82 2.84 2.82 2.81 2.77 2.88 2.89 2.81 2.91 3.08 3.34 3.43 3.07 2.55 2.43 2.37 2.35 2.26 2.27 2.12 1.98 1.89 1.68 1.56 1.43 1.40 1.39 1.41 1.44 1.45 1.48 1.46 1.51
1.94 1.97 2.11 2.15 2.05 2.06 2.27 2.31 2.36 2.63 2.78 2.67 2.66 2.66 2.46 2.51 2.57 2.46 2.60 2.68 2.82 3.06 3.01 2.70 2.64 2.59 2.54 2.41 2.40 2.35 2.13 1.88 1.61 1.59 1.44 1.40 1.43 1.42 1.42 1.44 1.46 1.45 1.48
1.81 1.87 1.90 1.94 1.99 2.12 2.23 2.23 2.25 2.25 2.27 2.35 2.58 2.68 2.47 2.44 2.34 2.33 2.36 2.35 2.44 2.57 2.79 2.71 2.60 2.63 2.56 2.56 2.47 2.25 2.09 1.97 1.64 1.59 1.57 1.49 1.43 1.37 1.35 1.35 1.36 1.45 1.59
1.66 1.75 1.83 1.93 1.99 2.06 2.11 2.19 2.25 2.17 2.15 2.19 2.33 2.40 2.36 2.33 2.27 2.36 2.26 2.25 2.33 2.48 2.61 2.64 2.57 2.66 2.66 2.60 2.61 2.39 2.38 2.23 2.03 1.80 1.75 1.64 1.64 1.59 1.50 1.39 1.33 1.37 1.52
1.74 1.81 1.88 1.90 1.91 1.90 1.83 1.87 1.95 1.97 2.09 2.05 1.96 1.98 2.00 2.04 2.03 2.06 1.92 2.07 2.30 2.44 2.48 2.49 2.49 2.65 2.81 2.83 2.65 2.57 2.62 2.58 2.37 2.06 1.93 1.78 1.73 1.64 1.61 1.55 1.45 1.36 1.37
1.82 1.86 1.82 1.87 1.88 1.63 1.80 1.82 1.82 1.92 2.00 2.00 1.91 1.81 1.72 1.72 1.66 1.66 1.62 1.70 1.97 2.18 2.30 2.41 2.39 2.50 2.74 2.93 3.03 2.99 2.84 2.72 2.65 2.46 2.33 2.26 2.08 1.98 1.83 1.67 1.63 1.51 1.39
1.94 1.89 1.83 1.83 1.87 1.93 1.97 1.80 1.66 1.63 1.74 1.80 1.78 1.76 1.56 1.47 1.63 1.61 1.63 1.60 1.62 1.77 1.93 2.13 2.22 2.20 2.38 2.66 2.91 2.84 2.95 2.97 2.89 2.88 2.85 2.77 2.46 2.20 1.92 1.73 1.61 1.37 1.25
2.13 2.10 2.04 1.96 1.95 1.92 1.90 1.70 1.69 1.63 1.67 1.69 1.72 1.76 1.74 1.64 1.68 1.80 1.77 1.70 1.58 1.53 1.62 1.70 1.82 1.95 2.18 2.50 2.77 2.74 2.79 2.87 2.90 2.87 2.88 2.85 2.55 2.33 2.06 1.87 1.78 1.50 1.25
2.27 2.18 2.12 2.13 2.06 2.07 2.14 1.95 1.96 1.83 1.84 1.86 1.89 1.89 1.85 1.74 1.86 1.82 1.74 1.73 1.67 1.64 1.68 1.76 1.74 1.86 2.11 2.24 2.41 2.50 2.46 2.52 2.45 2.36 2.48 2.64 2.59 2.47 2.30 2.04 1.80 1.60 1.30
2.30 2.30 2.29 2.25 2.24 2.28 2.52 2.32 2.15 2.01 2.02 2.02 2.11 2.09 2.11 1.94 1.92 1.86 1.72 1.75 1.76 1.75 1.83 1.79 1.77 1.73 1.76 1.97 2.20 2.23 2.39 2.56 2.42 2.21 1.99 2.13 2.30 2.48 2.58 2.32 2.02 1.80 1.66

GEFSMA_prec_meanprecacc_306.txt.gz
Total_Precipitation_Accumulation
2.61 2.64 2.63 2.57 2.42 2.50 2.77 2.94 2.90 3.24 3.42 3.03 2.63 2.45 2.47 2.56 2.44 2.42 2.29 2.15 2.12 2.35 2.83 3.11 3.03 2.84 2.57 2.33 2.18 2.10 1.94 1.75 1.65 1.53 1.45 1.53 1.57 1.52 1.47 1.45 1.41 1.35 1.32
2.81 2.98 2.91 2.81 2.61 2.56 2.71 2.90 3.06 3.54 3.50 3.34 2.93 2.67 2.57 2.53 2.36 2.28 2.39 2.54 2.37 2.30 2.48 2.89 3.25 3.23 3.10 2.85 2.56 2.40 2.23 2.12 1.93 1.60 1.43 1.50 1.60 1.60 1.60 1.59 1.53 1.44 1.38
2.84 2.85 2.71 2.62 2.63 2.72 2.91 2.94 3.15 3.38 3.09 3.11 2.95 2.73 2.52 2.32 2.17 2.15 2.32 2.50 2.36 2.31 2.50 2.78 3.08 3.22 3.39 3.47 3.37 3.17 2.73 2.38 2.16 1.89 1.63 1.56 1.56 1.53 1.51 1.55 1.56 1.46 1.34
2.65 2.89 2.67 2.52 2.83 2.84 2.97 3.27 3.43 3.38 3.33 3.36 3.11 2.73 2.48 2.38 2.04 1.93 1.90 2.08 2.31 2.10 2.43 2.72 2.82 3.00 3.42 3.84 4.09 4.07 3.67 3.14 2.68 2.36 2.05 1.84 1.76 1.61 1.41 1.33 1.41 1.39 1.25
2.65 2.97 2.96 3.03 3.06 3.17 3.22 3.05 3.48 3.53 3.43 3.46 3.04 2.83 2.50 2.21 2.01 1.82 1.74 1.73 1.95 2.17 2.32 2.38 2.51 2.71 3.25 4.09 4.45 4.53 4.45 3.99 3.29 2.86 2.69 2.51 2.32 2.01 1.68 1.50 1.44 1.38 1.27
2.76 3.19 3.04 3.02 3.09 3.27 3.36 3.32 3.48 3.52 3.24 3.21 2.91 2.84 2.44 1.96 1.86 1.81 1.64 1.64 1.75 1.78 2.11 2.44 2.69 2.44 2.79 3.46 3.94 4.50 4.85 4.59 3.89 3.42 3.28 3.16 3.06 2.69 2.13 1.81 1.70 1.58 1.45
2.78 3.25 3.06 3.30 3.24 3.24 3.27 3.32 3.45 3.36 3.07 3.26 3.35 2.95 2.38 1.95 1.92 1.70 1.64 1.68 1.73 1.71 2.06 2.48 2.76 2.70 2.43 2.52 2.91 3.46 4.21 4.55 4.32 3.93 3.72 3.53 3.53 3.28 2.66 2.26 2.08 1.84 1.70
2.99 3.04 3.23 3.18 3.23 3.36 3.31 3.30 3.44 3.23 2.88 3.16 3.51 3.58 2.90 2.48 2.02 1.54 1.65 1.76 1.90 1.99 2.06 2.20 2.41 2.68 2.67 2.79 2.54 2.49 3.19 4.07 4.56 4.49 4.14 3.66 3.46 3.34 3.02 2.76 2.47 2.20 2.05
3.22 3.23 3.19 3.09 3.10 2.92 3.00 3.08 3.10 3.11 3.05 3.00 3.32 3.68 3.24 2.74 2.39 1.80 1.66 1.68 1.93 2.22 2.25 2.26 2.30 2.55 2.70 3.12 3.20 2.86 2.70 3.14 3.94 4.75 4.75 4.10 3.45 3.16 3.09 3.01 2.87 2.57 2.36
3.03 2.85 2.79 2.95 2.97 2.74 2.78 2.46 2.60 2.81 2.83 2.70 2.97 3.06 3.10 3.08 2.99 2.32 1.87 1.70 1.84 2.05 2.24 2.18 2.22 2.47 2.75 3.07 3.34 3.19 2.72 2.52 2.90 3.90 4.53 4.44 3.93 3.40 3.12 3.13 3.34 3.26 2.86
2.76 2.44 2.46 2.65 2.60 2.51 2.43 2.34 2.50 2.40 2.36 2.44 2.67 2.86 2.94 3.02 2.90 2.73 2.31 2.25 2.19 2.05 2.02 2.09 2.31 2.46 2.70 3.02 3.36 3.11 2.92 2.69 2.51 2.71 3.27 3.73 3.90 3.75 3.57 3.78 4.23 4.42 4.12
2.43 2.17 2.07 2.24 2.34 2.36 2.34 2.33 2.41 2.32 2.34 2.49 2.50 2.55 2.78 2.80 2.76 2.93 2.52 2.37 2.36 2.11 2.08 2.19 2.22 2.43 2.55 2.79 2.88 2.98 2.88 2.65 2.47 2.43 2.59 2.90 3.18 3.35 3.49 3.83 4.38 4.80 4.98
2.05 2.02 2.03 2.12 2.16 2.22 2.10 2.18 2.24 2.30 2.47 2.54 2.46 2.39 2.51 2.57 2.69 2.94 2.89 2.61 2.47 2.27 2.35 2.31 2.19 2.26 2.21 2.38 2.49 2.56 2.36 2.23 2.10 2.06 2.12 2.25 2.32 2.52 2.80 3.27 3.84 4.39 4.75
2.04 2.11 2.08 1.95 1.91 2.02 1.91 2.18 2.13 2.21 2.45 2.51 2.28 2.52 2.54 2.55 2.84 3.06 3.15 3.24 2.92 2.62 2.56 2.52 2.39 2.22 2.19 2.24 2.30 2.25 2.04 1.96 1.71 1.68 1.75 1.85 1.92 2.01 2.22 2.55 3.07 3.45 3.59
2.10 2.24 2.19 2.08 1.96 2.05 2.18 2.47 2.41 2.37 2.58 2.57 2.56 2.74 2.69 2.66 2.82 2.93 3.12 3.33 3.42 3.07 2.87 2.84 2.65 2.35 2.24 2.26 2.28 2.04 2.07 2.00 1.75 1.64 1.53 1.49 1.57 1.68 1.75 1.90 2.18 2.38 2.54
1.96 2.17 2.29 2.21 2.11 2.15 2.33 2.53 2.53 2.67 2.84 2.85 2.91 2.97 2.91 2.76 2.86 2.91 2.95 3.20 3.49 3.42 3.08 2.72 2.50 2.23 2.11 1.97 2.20 1.99 2.02 2.01 1.81 1.65 1.47 1.36 1.40 1.46 1.48 1.51 1.62 1.78 1.95
1.92 2.00 2.20 2.28 2.22 2.25 2.37 2.45 2.41 2.72 2.85 2.87 2.86 2.84 2.80 2.92 2.93 2.84 2.94 3.10 3.37 3.45 3.09 2.56 2.44 2.38 2.37 2.27 2.28 2.14 2.00 1.92 1.72 1.59 1.46 1.42 1.41 1.43 1.45 1.47 1.50 1.50 1.54
1.94 1.98 2.12 2.16 2.06 2.08 2.30 2.33 2.38 2.65 2.80 2.69 2.69 2.69 2.48 2.53 2.60 2.49 2.63 2.70 2.85 3.10 3.04 2.72 2.65 2.60 2.55 2.42 2.42 2.37 2.15 1.91 1.64 1.62 1.47 1.43 1.46 1.45 1.44 1.45 1.48 1.49 1.51
1.82 1.88 1.91 1.95 2.00 2.14 2.25 2.25 2.27 2.27 2.29 2.37 2.59 2.70 2.48 2.46 2.35 2.35 2.38 2.37 2.47 2.59 2.82 2.74 2.62 2.65 2.58 2.57 2.49 2.27 2.11 2.01 1.66 1.62 1.60 1.51 1.45 1.39 1.37 1.38 1.38 1.48 1.62
1.67 1.76 1.84 1.94 2.01 2.07 2.12 2.20 2.26 2.19 2.16 2.21 2.35 2.41 2.38 2.35 2.28 2.38 2.28 2.27 2.35 2.51 2.63 2.67 2.59 2.68 2.67 2.62 2.63 2.41 2.40 2.28 2.07 1.82 1.78 1.67 1.66 1.61 1.53 1.41 1.36 1.39 1.55
1.75 1.82 1.89 1.92 1.92 1.91 1.83 1.88 1.97 1.98 2.10 2.06 1.97 2.00 2.02 2.05 2.04 2.08 1.94 2.09 2.32 2.46 2.51 2.52 2.51 2.68 2.84 2.86 2.68 2.60 2.64 2.62 2.41 2.08 1.96 1.81 1.76 1.67 1.65 1.59 1.48 1.38 1.39
1.83 1.87 1.83 1.88 1.89 1.64 1.81 1.83 1.83 1.93 2.02 2.01 1.93 1.83 1.74 1.74 1.67 1.67 1.63 1.71 1.99 2.20 2.32 2.44 2.42 2.54 2.77 2.96 3.07 3.02 2.87 2.76 2.69 2.49 2.36 2.29 2.12 2.02 1.89 1.73 1.66 1.53 1.41
1.96 1.91 1.85 1.85 1.89 1.94 1.98 1.80 1.67 1.64 1.75 1.81 1.80 1.78 1.57 1.48 1.65 1.62 1.64 1.61 1.63 1.79 1.95 2.15 2.24 2.21 2.40 2.69 2.94 2.87 2.99 3.02 2.94 2.92 2.89 2.79 2.48 2.24 1.99 1.82 1.67 1.40 1.27
2.14 2.11 2.06 1.97 1.96 1.94 1.91 1.71 1.71 1.64 1.68 1.70 1.73 1.77 1.76 1.66 1.71 1.82 1.78 1.71 1.59 1.55 1.65 1.72 1.84 1.97 2.20 2.52 2.80 2.77 2.82 2.91 2.95 2.93 2.92 2.89 2.58 2.36 2.10 1.94 1.89 1.56 1.29
2.28 2.19 2.13 2.14 2.07 2.08 2.16 1.97 1.98 1.84 1.85 1.87 1.90 1.90 1.86 1.75 1.88 1.84 1.75 1.74 1.68 1.65 1.71 1.78 1.76 1.87 2.12 2.26 2.43 2.53 2.49 2.56 2.51 2.44 2.53 2.68 2.64 2.51 2.32 2.10 1.93 1.74 1.38
2.31 2.31 2.30 2.26 2.26 2.30 2.54 2.34 2.17 2.02 2.04 2.04 2.13 2.10 2.12 1.95 1.94 1.87 1.73 1.75 1.76 1.76 1.84 1.81 1.78 1.75 1.78 1.99 2.23 2.27 2.42 2.59 2.47 2.28 2.04 2.18 2.34 2.53 2.62 2.37 2.12 1.95 1.80

GEFSMA_prec_meanprecacc_312.txt.gz
Total_Precipitation_Accumulation
2.68 2.70 2.69 2.64 2.50 2.58 2.85 3.03 2.99 3.33 3.48 3.07 2.67 2.49 2.52 2.62 2.52 2.52 2.35 2.19 2.16 2.39 2.86 3.15 3.08 2.89 2.62 2.39 2.25 2.18 2.01 1.81 1.73 1.60 1.52 1.60 1.65 1.61 1.55 1.51 1.47 1.40 1.36
2.92 3.09 3.02 2.92 2.72 2.65 2.78 2.97 3.13 3.59 3.54 3.37 2.96 2.69 2.60 2.56 2.40 2.33 2.42 2.58 2.41 2.34 2.52 2.92 3.29 3.27 3.15 2.92 2.63 2.49 2.31 2.20 2.01 1.67 1.50 1.57 1.67 1.69 1.68 1.66 1.59 1.49 1.42
2.93 2.95 2.81 2.70 2.70 2.78 2.96 2.99 3.20 3.42 3.12 3.13 2.97 2.75 2.54 2.34 2.19 2.17 2.35 2.55 2.41 2.35 2.54 2.80 3.11 3.26 3.44 3.53 3.45 3.26 2.82 2.48 2.24 1.97 1.70 1.64 1.65 1.62 1.61 1.63 1.63 1.52 1.38
2.69 2.96 2.74 2.60 2.90 2.89 3.02 3.32 3.48 3.41 3.36 3.38 3.13 2.74 2.49 2.40 2.06 1.96 1.93 2.12 2.36 2.14 2.46 2.74 2.85 3.03 3.46 3.89 4.16 4.15 3.76 3.22 2.77 2.44 2.13 1.91 1.84 1.68 1.48 1.39 1.47 1.44 1.29
2.67 2.99 3.00 3.08 3.10 3.21 3.25 3.08 3.51 3.58 3.47 3.50 3.06 2.85 2.51 2.22 2.04 1.86 1.77 1.76 1.98 2.21 2.36 2.42 2.54 2.73 3.28 4.12 4.49 4.57 4.51 4.04 3.34 2.91 2.74 2.57 2.39 2.06 1.73 1.54 1.49 1.43 1.32
2.78 3.22 3.09 3.06 3.12 3.30 3.40 3.37 3.53 3.57 3.29 3.25 2.93 2.86 2.45 1.97 1.87 1.83 1.67 1.67 1.77 1.82 2.15 2.49 2.75 2.49 2.82 3.49 3.96 4.52 4.89 4.62 3.92 3.45 3.32 3.21 3.10 2.73 2.16 1.84 1.75 1.64 1.50
2.81 3.30 3.10 3.35 3.27 3.27 3.31 3.37 3.50 3.43 3.13 3.31 3.40 2.99 2.40 1.97 1.93 1.71 1.65 1.69 1.75 1.74 2.09 2.52 2.81 2.74 2.47 2.55 2.94 3.49 4.24 4.59 4.35 3.97 3.75 3.57 3.58 3.32 2.70 2.29 2.12 1.89 1.76
3.02 3.07 3.28 3.24 3.28 3.41 3.36 3.36 3.51 3.30 2.95 3.23 3.58 3.65 2.96 2.54 2.05 1.55 1.66 1.77 1.92 2.02 2.10 2.24 2.45 2.73 2.71 2.85 2.58 2.53 3.23 4.11 4.59 4.51 4.16 3.70 3.49 3.38 3.06 2.80 2.51 2.27 2.12
3.24 3.26 3.23 3.14 3.15 2.97 3.06 3.15 3.18 3.20 3.14 3.09 3.40 3.75 3.31 2.82 2.44 1.83 1.68 1.71 1.96 2.26 2.29 2.31 2.36 2.63 2.78 3.19 3.26 2.90 2.73 3.16 3.96 4.77 4.77 4.13 3.49 3.20 3.13 3.04 2.90 2.62 2.40
3.05 2.87 2.82 2.99 3.01 2.79 2.85 2.52 2.68 2.89 2.92 2.77 3.05 3.12 3.15 3.14 3.04 2.37 1.92 1.74 1.89 2.09 2.27 2.21 2.25 2.51 2.81 3.13 3.40 3.22 2.74 2.54 2.91 3.91 4.55 4.46 3.96 3.43 3.14 3.15 3.37 3.29 2.91
2.79 2.46 2.48 2.68 2.64 2.56 2.49 2.39 2.58 2.47 2.42 2.50 2.74 2.92 2.99 3.07 2.95 2.78 2.35 2.30 2.24 2.08 2.04 2.11 2.34 2.49 2.73 3.06 3.41 3.14 2.95 2.70 2.52 2.71 3.28 3.74 3.91 3.77 3.59 3.80 4.25 4.45 4.17
2.48 2.20 2.09 2.27 2.38 2.42 2.40 2.38 2.45 2.36 2.39 2.53 2.55 2.62 2.85 2.86 2.82 2.98 2.57 2.42 2.42 2.16 2.10 2.21 2.23 2.44 2.57 2.81 2.91 3.01 2.91 2.69 2.50 2.44 2.60 2.90 3.19 3.36 3.50 3.83 4.39 4.82 5.02
2.11 2.07 2.08 2.17 2.21 2.27 2.15 2.22 2.27 2.33 2.51 2.59 2.51 2.45 2.56 2.61 2.74 2.99 2.95 2.65 2.52 2.31 2.38 2.33 2.20 2.28 2.23 2.41 2.53 2.59 2.40 2.26 2.12 2.08 2.13 2.27 2.34 2.53 2.82 3.28 3.85 4.41 4.78
2.08 2.17 2.14 1.99 1.96 2.06 1.95 2.24 2.16 2.24 2.48 2.55 2.32 2.57 2.58 2.58 2.87 3.10 3.20 3.29 2.96 2.65 2.59 2.55 2.41 2.23 2.21 2.26 2.33 2.28 2.07 1.98 1.72 1.69 1.76 1.86 1.93 2.02 2.24 2.56 3.09 3.47 3.61
2.14 2.29 2.24 2.12 2.01 2.09 2.22 2.50 2.44 2.40 2.61 2.60 2.60 2.79 2.73 2.68 2.84 2.95 3.14 3.37 3.47 3.12 2.90 2.87 2.68 2.36 2.25 2.27 2.31 2.07 2.10 2.02 1.77 1.65 1.55 1.50 1.58 1.69 1.76 1.91 2.20 2.40 2.56
1.99 2.20 2.33 2.25 2.15 2.18 2.36 2.57 2.57 2.70 2.88 2.89 2.95 3.02 2.96 2.79 2.88 2.94 2.98 3.23 3.53 3.47 3.11 2.75 2.53 2.25 2.12 1.98 2.21 2.00 2.05 2.04 1.83 1.67 1.49 1.39 1.43 1.48 1.50 1.53 1.64 1.79 1.97
1.95 2.03 2.23 2.31 2.26 2.28 2.40 2.48 2.43 2.75 2.89 2.91 2.89 2.87 2.84 2.98 2.97 2.87 2.97 3.14 3.41 3.50 3.14 2.59 2.46 2.40 2.39 2.29 2.30 2.17 2.03 1.96 1.75 1.63 1.48 1.44 1.43 1.45 1.48 1.49 1.51 1.51 1.55
1.97 2.01 2.15 2.19 2.09 2.10 2.32 2.35 2.39 2.68 2.84 2.72 2.72 2.72 2.52 2.58 2.65 2.53 2.66 2.74 2.88 3.15 3.09 2.76 2.68 2.63 2.58 2.45 2.44 2.40 2.18 1.94 1.67 1.66 1.49 1.45 1.48 1.47 1.47 1.47 1.49 1.50 1.52
1.85 1.91 1.94 1.98 2.03 2.17 2.28 2.27 2.28 2.29 2.32 2.40 2.63 2.74 2.53 2.51 2.41 2.41 2.43 2.41 2.50 2.62 2.87 2.80 2.65 2.69 2.61 2.60 2.52 2.31 2.15 2.06 1.70 1.64 1.62 1.53 1.47 1.42 1.39 1.39 1.40 1.49 1.64
1.69 1.78 1.87 1.97 2.03 2.10 2.14 2.21 2.28 2.21 2.19 2.24 2.39 2.45 2.43 2.39 2.33 2.43 2.33 2.31 2.39 2.55 2.69 2.73 2.64 2.74 2.72 2.67 2.69 2.46 2.46 2.32 2.09 1.83 1.79 1.69 1.68 1.64 1.55 1.43 1.37 1.41 1.56
1.77 1.85 1.92 1.95 1.94 1.93 1.85 1.90 1.98 2.01 2.14 2.09 2.00 2.03 2.05 2.09 2.08 2.11 1.96 2.13 2.36 2.51 2.56 2.57 2.57 2.74 2.89 2.91 2.72 2.65 2.71 2.67 2.44 2.11 1.99 1.83 1.78 1.69 1.68 1.63 1.51 1.41 1.41
1.87 1.91 1.86 1.92 1.91 1.65 1.82 1.84 1.84 1.95 2.04 2.04 1.97 1.86 1.77 1.77 1.69 1.69 1.65 1.73 2.01 2.24 2.36 2.49 2.47 2.59 2.82 3.03 3.15 3.10 2.94 2.81 2.72 2.53 2.40 2.32 2.16 2.08 1.96 1.79 1.72 1.59 1.45
1.99 1.94 1.88 1.88 1.91 1.96 1.99 1.81 1.67 1.65 1.77 1.83 1.83 1.81 1.59 1.49 1.66 1.63 1.66 1.63 1.65 1.81 1.97 2.18 2.28 2.25 2.45 2.75 3.02 2.94 3.06 3.08 2.99 2.96 2.94 2.84 2.53 2.31 2.05 1.86 1.73 1.46 1.33
2.17 2.14 2.09 2.00 1.99 1.95 1.92 1.72 1.71 1.65 1.69 1.71 1.74 1.78 1.77 1.68 1.73 1.85 1.81 1.73 1.61 1.57 1.67 1.75 1.87 1.99 2.23 2.56 2.84 2.81 2.87 2.97 3.00 2.97 2.98 2.95 2.63 2.42 2.16 2.00 1.95 1.64 1.37
2.30 2.21 2.16 2.17 2.09 2.10 2.18 1.98 1.99 1.85 1.86 1.87 1.90 1.90 1.87 1.77 1.90 1.87 1.77 1.75 1.70 1.68 1.73 1.81 1.78 1.89 2.14 2.29 2.47 2.57 2.53 2.59 2.54 2.48 2.58 2.74 2.71 2.58 2.38 2.14 1.98 1.82 1.48
2.32 2.33 2.31 2.28 2.28 2.32 2.56 2.36 2.18 2.03 2.04 2.04 2.13 2.11 2.14 1.97 1.96 1.90 1.75 1.78 1.79 1.81 1.90 1.86 1.83 1.79 1.82 2.03 2.27 2.30 2.47 2.64 2.51 2.32 2.08 2.23 2.41 2.59 2.68 2.41 2.16 2.03 1.90